[[{"header":{"parameterUnit":"m.s-1","parameterCategory":1,"la1":30.2991,"la2":30.254,"lo1":-89.0895,"lo2":-89.0444,"dy":0.0017,"dx":0.0017,"nx":28,"ny":28,"refTime":"2024-11-25T03:00:00:Z","depth":0,"parameterNumber":2,"parameterNumberName":"U-component_of_WINDS"},"data":[0,0,0,0,0,0,0,0,0,0,0,0,0,0,0,0,0,0,0,0,0,0,0,0,0,0,0,0,0,0,0,0,0,0,0,0,0,0,0,0,0,0,0,0,0,0,0,0,0,0,0,0,0,0,0,0,0,0,0.3046,0.3047,0,0.314,0.3141,0.3143,0.3191,0.3191,0.3191,0.3191,0.3293,0.3296,0.3298,0,0,0,0,0,0,0,0,0,0,0,0,0,0.2912,0.2914,0.3046,0.3047,0.3048,0.314,0.3141,0.3143,0.3191,0.3191,0.3191,0.3191,0.3292,0.3295,0.3299,0,0,0,0,0,0,0,0,0,0,0,0,0,0.2985,0.2915,0.3045,0.3083,0.3087,0.314,0.3142,0.3143,0.3191,0.3191,0.3191,0.3191,0.3291,0.3295,0.3299,0.3323,0,0,0.3311,0.3313,0,0,0,0,0,0,0,0,0.298,0.2989,0.3076,0.308,0.3085,0.3154,0.3132,0.3204,0.3191,0.3152,0.3191,0.3191,0.3247,0.3255,0.3273,0.3328,0.3332,0.3312,0.3314,0.3316,0.3317,0,0,0,0,0,0,0,0.2975,0.2986,0.3083,0.3077,0.3083,0.3097,0.3107,0.3146,0.3198,0.3155,0.3159,0.3169,0.325,0.3269,0.3275,0.3334,0.3312,0.3315,0.3318,0.3319,0.3416,0.3417,0,0,0,0,0,0,0.2963,0.2981,0.308,0.3086,0.3032,0.3099,0.3111,0.3132,0.3198,0.3208,0.3169,0.3171,0.3262,0.3271,0.3279,0.3313,0.3316,0.332,0.3322,0.3416,0.3416,0.3417,0,0,0,0,0,0,0.296,0.2972,0.3076,0.3035,0.3049,0.3101,0.3125,0.3134,0.3153,0.3208,0.3218,0.3178,0.3262,0.3273,0.3312,0.3317,0.3322,0.3325,0.3416,0.3416,0.3417,0.338,0,0,0,0,0,0,0.2956,0.297,0.2979,0.3034,0.3051,0.3106,0.3125,0.3135,0.3159,0.3162,0.322,0.3229,0.3263,0.3306,0.3316,0.3323,0.3328,0.3416,0.3416,0.3416,0.3381,0.3379,0.3377,0,0,0,0,0,0.2951,0.2965,0.2979,0.299,0.3062,0.3106,0.3116,0.3152,0.3159,0.3169,0.3205,0.3227,0.3315,0.3309,0.3321,0.3329,0.3416,0.3416,0.3416,0.3382,0.3379,0.3377,0,0,0,0,0,0,0.291,0.2973,0.2989,0.3021,0.3057,0.3114,0.3127,0.3148,0.3185,0.3187,0.3233,0.3246,0.3281,0.3309,0.3302,0.3357,0.3368,0.337,0.3337,0.3336,0.3334,0.3327,0.3332,0,0,0,0,0,0.2904,0.2933,0.2987,0.3011,0.3028,0.3074,0.3095,0.312,0.316,0.3177,0.3216,0.3255,0.3292,0.3315,0.3352,0.3385,0.34,0.3397,0.3395,0.3393,0.3396,0.3417,0.3417,0.3418,0.3418,0.3418,0,0,0.2894,0.2932,0.2947,0.3003,0.3035,0.3065,0.3087,0.3118,0.3142,0.3182,0.3221,0.3251,0.3298,0.3335,0.3353,0.336,0.3399,0.3394,0.3392,0.3395,0.3418,0.3417,0.3417,0.3418,0.3418,0.3418,0,0,0.289,0.292,0.2944,0.2975,0.3021,0.3052,0.3058,0.3111,0.3132,0.3172,0.3203,0.3233,0.3294,0.3328,0.3353,0.3362,0.3385,0.3373,0.3364,0.3384,0.3384,0.3384,0.3389,0.339,0.3375,0.3375,0.3375,0,0.2871,0.2916,0.2954,0.2983,0.3008,0.3044,0.3069,0.3098,0.3155,0.3172,0.3178,0.3257,0.3292,0.3337,0.334,0.3358,0.3368,0.3367,0.3381,0.3381,0.3382,0.3387,0.3389,0.3373,0.3373,0.3374,0.3374,0,0.2892,0.2923,0.2936,0.2989,0.3015,0.3042,0.3086,0.3108,0.3131,0.3162,0.3203,0.3246,0.3292,0.3305,0.3328,0.3354,0.3357,0.3371,0.3383,0.338,0.3385,0.3388,0.3371,0.3371,0.3372,0.3372,0,0,0.2864,0.2937,0.2942,0.2967,0.3022,0.3047,0.3077,0.3121,0.314,0.3179,0.3206,0.3258,0.3272,0.33,0.3328,0.3346,0.3352,0.3358,0.336,0.3357,0.3386,0.3375,0.3377,0.3368,0.3368,0.3369,0.3382,0,0.2869,0.2922,0.2957,0.2997,0.3027,0.3063,0.3089,0.3127,0.3157,0.3189,0.3223,0.3259,0.3273,0.3291,0.331,0.3347,0.3359,0.3347,0.3396,0.3397,0.3383,0.3379,0.3368,0.3379,0.3384,0.3385,0.3385,0,0.2881,0.2917,0.296,0.3012,0.3027,0.3049,0.3093,0.3122,0.3167,0.3187,0.3219,0.3247,0.3283,0.329,0.3341,0.3332,0.3354,0.3375,0.3377,0.3384,0.3391,0.3387,0.3383,0.3385,0.3389,0.3388,0.3388,0,0.2858,0.2918,0.2952,0.2972,0.3033,0.3049,0.3076,0.312,0.3144,0.3184,0.3201,0.3244,0.3268,0.3302,0.3342,0.3343,0.3389,0.3399,0.3409,0.3408,0.3417,0.3416,0.3417,0.343,0.343,0.3429,0.3429,0,0.286,0.2886,0.2942,0.2963,0.2993,0.3034,0.3063,0.3093,0.3132,0.3161,0.3195,0.3221,0.3272,0.3306,0.3337,0.3375,0.3386,0.3405,0.3413,0.3402,0.34,0.3418,0.3419,0.343,0.343,0.343,0.343,0,0.284,0.2879,0.2918,0.2973,0.2988,0.3007,0.3056,0.3078,0.311,0.3146,0.3157,0.3208,0.3249,0.3292,0.3349,0.337,0.3407,0.3418,0.3392,0.3396,0.3403,0.3403,0.3417,0.3422,0.343,0.3429,0.3429,0,0.2839,0.2859,0.2916,0.2937,0.2963,0.2996,0.3021,0.3063,0.3089,0.3141,0.3158,0.3201,0.3238,0.3303,0.3346,0.339,0.3403,0.3405,0.341,0.3399,0.3405,0.3403,0.3406,0.3404,0.3403,0.3403,0.3403,0,0.2834,0.2853,0.2887,0.2928,0.2957,0.2991,0.3028,0.3044,0.3093,0.312,0.3162,0.319,0.3248,0.3291,0.334,0.337,0.3396,0.3401,0.3406,0.3395,0.3379,0.3389,0.3388,0.3401,0.3401,0.3401,0.3401,0.3401,0.2825,0.2845,0.2888,0.2925,0.2957,0.299,0.3014,0.3049,0.3084,0.3132,0.3156,0.3198,0.3244,0.3312,0.3341,0.3377,0.3384,0.339,0.3392,0.3393,0.3391,0.3373,0.3386,0.3386,0.3386,0.3386,0.3386,0,0.2822,0.2852,0.2886,0.2935,0.2965,0.2984,0.3026,0.305,0.3086,0.3126,0.3161,0.321,0.3253,0.3299,0.3345,0.3365,0.3378,0.3375,0.3375,0.3382,0.3381,0.3373,0.3364,0.3364,0.3364,0.3364,0.3364,0.3364,0.2825,0.286,0.2883,0.2935,0.2965,0.3006,0.3028,0.306,0.3091,0.3144,0.3179,0.3208,0.3251,0.3301,0.3341,0.3354,0.337,0.3365,0.3381,0.338,0.3382,0.3383,0.3376,0.3368,0.3368,0.3379,0.3379,0.3379]},{"header":{"parameterUnit":"m.s-1","parameterCategory":1,"la1":30.2991,"la2":30.254,"lo1":-89.0895,"lo2":-89.0444,"dy":0.0017,"dx":0.0017,"nx":28,"ny":28,"refTime":"2024-11-25T03:00:00:Z","depth":0,"parameterNumber":3,"parameterNumberName":"V-component_of_WINDS"},"data":[0,0,0,0,0,0,0,0,0,0,0,0,0,0,0,0,0,0,0,0,0,0,0,0,0,0,0,0,0,0,0,0,0,0,0,0,0,0,0,0,0,0,0,0,0,0,0,0,0,0,0,0,0,0,0,0,0,0,2.8728,2.8729,0,2.8796,2.8796,2.8797,2.8848,2.8849,2.8849,2.885,2.8916,2.8917,2.8918,0,0,0,0,0,0,0,0,0,0,0,0,0,2.8643,2.8645,2.8728,2.8729,2.873,2.8795,2.8796,2.8797,2.8848,2.8849,2.8849,2.885,2.8915,2.8917,2.8918,0,0,0,0,0,0,0,0,0,0,0,0,0,2.8692,2.8645,2.8728,2.8763,2.8767,2.8795,2.8796,2.8798,2.8848,2.8849,2.885,2.885,2.8915,2.8917,2.8918,2.8916,0,0,2.8924,2.8925,0,0,0,0,0,0,0,0,2.8689,2.8695,2.8757,2.8761,2.8765,2.8814,2.8791,2.8837,2.8848,2.8817,2.885,2.8851,2.8881,2.8886,2.8897,2.8919,2.8922,2.8925,2.8926,2.8927,2.8927,0,0,0,0,0,0,0,2.8686,2.8693,2.8755,2.8758,2.8763,2.8776,2.8783,2.88,2.8844,2.882,2.8824,2.8831,2.8883,2.8895,2.8899,2.8923,2.8925,2.8926,2.8927,2.8928,2.895,2.8949,0,0,0,0,0,0,2.8677,2.8689,2.8753,2.8757,2.8729,2.8777,2.8785,2.8798,2.8844,2.8852,2.8831,2.8834,2.8891,2.8896,2.8901,2.8904,2.8927,2.8928,2.893,2.895,2.895,2.8949,0,0,0,0,0,0,2.8675,2.8682,2.875,2.8724,2.8734,2.8777,2.8791,2.8799,2.881,2.8852,2.886,2.8834,2.8892,2.8898,2.8913,2.8907,2.8929,2.8931,2.8951,2.895,2.8949,2.8907,0,0,0,0,0,0,2.8673,2.8681,2.8681,2.8724,2.8735,2.876,2.8791,2.88,2.8814,2.8818,2.8858,2.8865,2.8893,2.891,2.8915,2.891,2.8933,2.8952,2.8951,2.895,2.8909,2.8905,2.8901,0,0,0,0,0,2.8669,2.8665,2.868,2.8688,2.8735,2.876,2.8766,2.88,2.8813,2.8813,2.8841,2.8864,2.8906,2.8911,2.8917,2.8912,2.8952,2.8951,2.895,2.8911,2.8905,2.8901,0,0,0,0,0,0,2.8618,2.8671,2.8689,2.8698,2.8725,2.8769,2.8769,2.8792,2.8814,2.8817,2.8857,2.8865,2.8876,2.8895,2.8899,2.8914,2.8933,2.8932,2.8901,2.8896,2.8892,2.8887,2.8934,0,0,0,0,0,2.8608,2.8624,2.8669,2.8673,2.8685,2.8725,2.8737,2.8761,2.8789,2.88,2.8828,2.8854,2.8874,2.8886,2.8906,2.8912,2.8923,2.8912,2.8908,2.8905,2.8904,2.8911,2.8908,2.8945,2.8945,2.8945,0,0,2.8586,2.8618,2.8625,2.8663,2.8687,2.8703,2.8734,2.8749,2.8761,2.8802,2.8818,2.884,2.8872,2.8883,2.8889,2.8899,2.8896,2.8903,2.89,2.8901,2.8909,2.8906,2.8903,2.8944,2.8944,2.8944,0,0,2.8556,2.8581,2.8588,2.8612,2.8647,2.8674,2.8676,2.8718,2.8734,2.8752,2.8783,2.8799,2.8831,2.8853,2.8869,2.8851,2.8873,2.8856,2.8835,2.8841,2.8838,2.8836,2.8831,2.8829,2.8855,2.8855,2.8855,0,2.8525,2.8551,2.8589,2.8603,2.862,2.866,2.8668,2.8688,2.8728,2.8738,2.875,2.8794,2.8817,2.8836,2.8832,2.8842,2.8846,2.8852,2.8836,2.8834,2.8832,2.8828,2.8826,2.8853,2.8853,2.8854,2.8854,0,2.8512,2.853,2.8532,2.8572,2.8588,2.8599,2.8639,2.8651,2.8674,2.87,2.8718,2.8749,2.8778,2.8784,2.8805,2.8805,2.8811,2.8829,2.8848,2.8826,2.8823,2.8822,2.885,2.8851,2.8851,2.8852,0,0,2.845,2.8513,2.8513,2.8533,2.8576,2.8591,2.8604,2.8634,2.8644,2.8671,2.8684,2.8712,2.873,2.8747,2.8772,2.8778,2.8764,2.8795,2.8796,2.879,2.8769,2.8756,2.8754,2.878,2.878,2.8779,2.8767,0,2.8428,2.8455,2.8491,2.8506,2.8524,2.8564,2.8576,2.8604,2.8629,2.8648,2.8676,2.8696,2.8716,2.8728,2.8735,2.8764,2.8761,2.8766,2.8793,2.8793,2.8785,2.8752,2.8738,2.8725,2.8766,2.8766,2.8766,0,2.8405,2.8432,2.845,2.8495,2.8504,2.8514,2.8546,2.8563,2.8597,2.8615,2.8636,2.8664,2.8681,2.8698,2.8723,2.8726,2.8739,2.8755,2.8756,2.876,2.8778,2.8757,2.8721,2.8719,2.8764,2.8764,2.8764,0,2.836,2.8401,2.8418,2.8433,2.8485,2.8492,2.8514,2.8548,2.8565,2.8592,2.8604,2.8632,2.8647,2.8669,2.8704,2.8713,2.8726,2.8745,2.8742,2.8741,2.8743,2.8742,2.871,2.8749,2.8749,2.8749,2.875,0,2.8332,2.8342,2.8399,2.8409,2.8422,2.8463,2.8474,2.8499,2.853,2.8547,2.8582,2.8596,2.8641,2.8661,2.8688,2.8706,2.8712,2.8728,2.8735,2.8725,2.8723,2.8735,2.8737,2.8749,2.8749,2.8749,2.8749,0,2.8283,2.8322,2.8343,2.8392,2.8405,2.8412,2.8454,2.8466,2.8494,2.8515,2.8522,2.8566,2.8592,2.8629,2.8665,2.8684,2.8698,2.8708,2.8687,2.8691,2.8686,2.8687,2.8661,2.866,2.8699,2.8698,2.8698,0,2.8263,2.8272,2.8323,2.8338,2.8359,2.8381,2.8399,2.844,2.8458,2.8498,2.8506,2.8534,2.856,2.8599,2.8634,2.8663,2.8676,2.8665,2.868,2.8671,2.8677,2.8677,2.8679,2.8661,2.866,2.866,2.8659,0,2.8224,2.8244,2.8269,2.8301,2.8322,2.8349,2.8378,2.8387,2.8435,2.8453,2.848,2.85,2.8539,2.8568,2.8602,2.8624,2.865,2.8655,2.8656,2.8646,2.8634,2.8642,2.8678,2.8655,2.8655,2.8656,2.8656,2.8656,2.8191,2.8202,2.824,2.8268,2.8294,2.8321,2.8336,2.8367,2.8391,2.8427,2.845,2.8477,2.8513,2.8561,2.8583,2.8605,2.8616,2.8616,2.8617,2.8617,2.8614,2.863,2.8611,2.8611,2.8612,2.8612,2.8612,0,2.8155,2.8183,2.8208,2.8248,2.827,2.8294,2.8328,2.8344,2.8368,2.84,2.8425,2.8458,2.8487,2.8526,2.8558,2.8568,2.8581,2.8575,2.8575,2.858,2.8602,2.8599,2.8564,2.8564,2.8564,2.8564,2.8564,2.8564,2.8139,2.816,2.8184,2.8219,2.8246,2.8274,2.8292,2.8317,2.8343,2.8379,2.8404,2.843,2.8465,2.85,2.8528,2.8539,2.8549,2.854,2.8554,2.8574,2.8578,2.8582,2.858,2.8542,2.8542,2.8531,2.8531,2.8531]}]]